GEFSGL_500_meanwind_000.txt.gz
Wind_Speed
16 18 21 23 23 26 28 26 26 27 25 24 23 23 21 21 18 13 12 13 16 17 17 17 16 16 17 18 21 23 27 29 28 29 28 28 25 24 23 22 21 21 21
22 25 26 25 24 26 26 24 25 27 26 23 22 22 20 20 17 15 12 12 12 13 12 13 16 17 18 17 18 17 21 27 29 31 30 30 26 25 21 24 24 24 24
22 25 26 24 24 25 24 22 21 22 23 22 21 21 20 20 20 18 16 16 16 15 13 14 16 16 16 21 24 23 22 25 31 35 33 29 27 26 26 26 25 24 25
21 19 20 23 25 28 26 23 21 20 21 23 21 21 21 21 23 22 20 19 19 19 19 19 20 20 19 21 24 26 29 28 31 37 40 33 27 26 28 29 26 24 24
21 20 20 24 26 25 25 21 24 23 21 22 22 21 22 23 23 24 25 25 23 22 22 22 23 23 23 23 24 25 27 28 30 35 40 40 33 32 31 30 27 25 25
21 21 23 27 23 27 25 21 22 19 15 20 22 18 20 23 26 26 27 27 26 24 24 23 23 24 24 23 21 22 23 27 33 38 44 42 36 35 33 30 27 25 28
19 23 24 25 26 28 28 25 22 19 17 16 14 14 14 18 24 24 24 25 25 25 25 26 26 26 25 25 23 22 22 22 25 34 43 46 43 36 35 32 30 29 30
19 21 22 22 22 22 24 25 23 20 17 16 15 15 15 16 18 21 19 20 22 23 24 26 26 26 28 29 26 24 22 24 24 28 37 39 39 38 40 38 31 28 29
18 22 25 25 23 21 19 20 20 19 16 15 15 16 17 17 16 18 20 20 20 22 23 24 26 27 28 30 29 27 25 23 23 25 30 32 34 36 34 33 32 30 29
17 21 23 23 21 20 20 19 19 18 17 16 17 19 21 21 21 23 23 23 24 25 24 24 25 27 28 28 28 27 25 24 20 19 22 21 20 25 28 31 34 33 32
17 19 20 21 22 23 22 20 18 17 17 17 18 21 24 26 27 28 29 29 30 30 30 28 27 26 26 27 27 25 24 24 22 21 21 22 25 24 22 23 27 29 29
15 16 17 20 22 22 19 18 17 16 17 18 20 23 25 28 32 35 36 37 39 39 39 35 31 29 28 26 23 23 23 25 26 25 26 27 27 28 27 29 31 31 31
17 17 18 20 20 18 17 16 15 17 19 20 23 24 25 28 31 33 35 36 36 36 37 37 35 31 29 26 24 24 24 24 23 25 26 26 27 29 29 30 31 33 34
18 18 18 18 18 18 16 16 17 18 19 20 22 22 23 27 28 30 32 31 29 27 25 29 33 30 26 25 23 22 22 22 21 21 23 24 24 24 24 25 26 28 29
16 16 17 17 17 17 16 15 15 16 16 17 18 17 19 19 21 23 21 19 23 24 24 24 26 26 24 24 23 22 21 20 20 18 17 18 19 21 23 25 26 28 30
15 15 14 15 16 16 14 13 14 16 15 15 15 15 14 16 14 14 16 12 4 14 18 18 19 21 22 22 22 20 18 17 15 15 15 17 18 20 23 26 27 29 31
16 16 16 17 16 14 13 14 16 17 16 15 14 12 12 11 11 18 16 9 7 4 8 11 14 15 18 21 22 19 16 14 15 17 20 21 23 24 26 27 29 31 32
18 18 17 16 16 15 15 15 16 17 16 15 12 12 12 12 13 15 17 16 10 5 4 8 12 15 16 15 14 12 13 15 16 17 18 19 20 22 25 27 29 30 32
17 18 18 18 17 17 18 17 17 16 16 15 15 15 15 15 16 17 19 17 13 7 5 12 15 15 14 11 9 7 9 11 13 14 16 18 21 24 25 27 28 28 30
17 17 18 18 18 19 20 19 19 18 18 17 17 16 15 15 16 18 21 19 13 6 4 4 4 3 4 4 5 6 9 12 15 17 20 22 23 25 26 27 28 29 30
18 18 18 18 18 19 20 21 21 21 20 20 19 18 17 17 18 19 22 22 13 6 10 10 9 8 5 2 1 4 7 10 13 15 17 19 22 24 27 29 31 32 32
18 18 17 17 17 17 18 19 21 22 23 23 24 23 22 21 22 23 24 26 24 19 15 13 12 11 10 9 7 6 7 9 11 14 17 21 23 25 26 26 27 27 28
18 17 16 16 15 15 16 17 18 19 20 21 22 23 22 22 23 24 26 28 29 27 24 20 17 15 13 12 11 11 11 11 12 15 20 24 25 26 26 26 26 27 28
16 16 14 14 13 14 15 17 18 19 19 19 20 21 21 22 22 23 23 24 25 26 25 23 20 18 16 14 14 15 15 14 17 21 23 24 24 24 24 24 24 25 25
13 13 13 13 13 13 14 15 16 17 17 17 18 19 19 20 20 20 21 21 21 20 20 18 17 16 16 16 17 18 19 20 22 24 26 27 26 26 25 24 23 23 22
11 11 12 12 13 14 15 15 16 16 15 15 15 15 17 17 18 18 18 19 19 20 19 18 17 16 16 16 17 18 19 20 23 25 27 28 27 25 24 23 22 21 22

GEFSGL_500_meanwind_006.txt.gz
Wind_Speed
20 17 16 16 17 21 24 26 28 29 30 30 29 28 27 26 24 23 21 20 19 18 16 15 15 15 16 16 16 18 22 26 28 27 26 23 22 21 20 19 17 20 24
12 12 13 16 19 22 23 24 24 25 26 27 27 26 24 23 23 23 21 19 19 18 16 15 15 16 16 16 15 16 19 24 27 30 31 29 27 25 23 22 21 22 22
9 12 15 16 16 16 17 18 20 20 21 22 23 25 25 23 21 22 21 19 19 19 18 17 16 15 16 17 16 15 17 20 24 27 29 31 30 28 27 26 26 25 25
11 13 14 13 13 14 16 17 18 18 18 20 21 23 25 24 22 22 23 21 20 21 22 21 20 17 16 17 18 18 18 19 22 23 25 28 30 30 29 29 30 30 29
13 14 14 14 14 15 17 19 18 17 17 19 20 20 21 24 24 24 25 25 23 23 24 24 24 22 21 20 20 20 20 20 22 24 26 26 27 29 30 32 32 32 32
14 14 14 15 16 17 19 20 18 16 16 17 17 18 20 23 25 26 26 26 26 26 26 26 26 26 24 24 24 24 23 23 24 25 27 28 29 31 33 35 36 34 34
12 13 14 15 17 19 19 17 16 16 17 17 17 16 17 18 20 22 23 24 26 27 27 26 26 26 26 26 25 25 25 25 25 24 25 27 28 30 32 35 38 39 38
12 13 15 17 18 18 18 17 16 17 18 19 19 17 16 16 16 16 17 19 20 22 24 25 25 26 26 26 25 25 26 26 25 25 25 26 27 26 28 32 36 40 41
13 14 15 17 18 18 19 19 19 18 18 18 18 18 17 17 17 18 19 21 22 21 22 24 25 26 26 25 26 26 25 25 25 25 25 26 26 26 26 28 32 37 41
13 15 17 18 20 20 21 21 20 18 16 16 16 16 16 16 17 18 20 21 23 22 23 25 25 25 24 22 23 23 23 23 23 24 24 25 25 25 25 25 27 33 40
16 17 19 21 22 22 22 21 20 18 16 15 15 16 17 17 18 19 21 23 24 25 26 28 29 28 26 24 22 21 20 20 21 21 22 22 22 21 21 21 22 25 31
18 19 20 21 22 21 21 20 19 16 15 15 16 17 18 19 19 20 21 22 24 27 29 32 33 33 31 29 25 23 20 19 19 19 20 21 21 20 21 21 22 24 24
18 19 21 21 21 20 19 18 17 15 15 15 16 16 17 17 18 19 20 21 23 26 29 32 35 37 36 34 30 26 22 20 19 19 20 21 22 24 25 26 26 26 27
20 21 21 20 19 18 17 15 14 14 14 14 14 15 16 16 16 18 20 22 24 27 29 31 33 34 35 34 31 27 24 21 20 20 21 22 23 25 27 29 30 31 31
19 19 19 19 18 16 15 14 13 13 13 12 13 13 13 14 14 15 17 18 19 19 19 18 19 22 25 27 26 24 22 20 19 20 21 22 23 24 25 26 28 29 29
17 18 19 19 19 17 15 14 14 13 13 13 13 13 14 15 16 17 17 15 14 12 9 3 4 10 14 17 19 19 18 17 17 18 19 20 22 22 22 21 22 23 24
17 18 19 20 20 19 18 17 16 16 15 15 16 16 17 17 17 17 15 12 11 9 7 8 8 9 10 12 14 14 13 13 14 14 15 16 16 18 19 21 23 25 26
17 18 20 20 21 21 21 20 20 19 18 18 18 19 20 20 19 16 13 11 10 9 10 11 12 11 11 11 10 9 8 8 9 10 11 14 16 18 20 21 23 25 26
17 18 19 20 21 21 22 22 22 22 21 21 21 23 24 24 21 17 14 13 13 12 13 13 13 13 13 12 10 7 4 2 5 8 11 14 16 19 21 23 25 27 28
17 17 18 19 19 20 20 21 22 23 23 23 24 26 27 28 25 22 21 21 20 18 16 16 16 16 14 12 10 6 4 3 5 8 10 13 16 19 22 24 26 28 30
15 16 16 17 18 18 19 20 21 22 23 24 25 27 29 30 29 28 28 28 28 26 23 20 18 17 15 13 11 10 9 8 9 10 13 16 18 20 22 23 24 25 26
14 14 15 16 17 18 19 19 20 21 22 24 25 27 28 29 30 30 29 28 28 27 25 23 21 19 17 16 15 14 13 13 14 16 18 19 20 20 20 20 20 21 21
13 13 14 15 16 17 18 19 19 20 21 22 24 25 26 27 27 27 27 26 25 24 23 21 20 19 18 17 17 16 16 17 17 18 19 20 21 21 21 21 20 20 20
11 12 13 15 16 18 19 19 19 19 19 20 21 22 22 23 24 24 24 23 22 21 20 19 18 18 17 17 17 17 18 18 19 19 19 20 22 23 23 23 23 23 23
9 10 11 13 15 17 18 19 18 18 18 18 18 18 19 20 20 21 21 20 20 19 18 17 17 16 17 17 18 18 19 20 21 21 22 22 22 23 24 24 25 25 25
7 7 8 10 13 15 17 17 16 17 17 17 17 16 16 16 17 18 19 19 19 18 18 17 17 17 17 17 17 17 18 19 20 21 23 23 24 24 25 25 26 26 27

GEFSGL_500_meanwind_012.txt.gz
Wind_Speed
30 33 35 34 32 30 28 24 20 17 16 19 22 24 25 25 25 24 23 23 23 24 23 21 21 21 21 19 18 18 19 21 23 25 25 26 25 24 22 23 23 23 24
21 21 21 19 16 14 13 12 10 11 13 17 20 22 22 23 23 22 22 22 22 23 23 22 21 21 21 19 18 18 19 20 22 24 26 27 26 25 24 23 21 20 20
9 9 8 7 6 6 5 4 6 9 12 15 17 19 21 20 21 21 22 22 23 24 24 23 22 21 21 20 19 19 20 20 21 22 24 26 27 28 27 25 23 22 22
7 7 7 6 5 3 1 3 7 10 13 16 19 20 20 20 20 21 22 23 24 25 26 24 23 23 23 22 21 20 20 21 20 20 22 25 26 28 29 29 28 27 26
9 8 7 6 3 1 3 6 9 12 15 17 19 19 20 20 19 19 20 22 24 26 26 26 25 25 25 24 23 22 21 21 21 21 22 23 25 27 29 30 30 30 30
8 7 6 4 4 4 6 8 10 13 15 17 19 20 21 21 20 20 20 21 22 25 27 27 27 26 26 26 25 24 23 22 22 22 22 22 23 25 27 27 28 29 30
8 7 7 7 7 9 10 12 14 16 17 19 20 21 22 23 22 22 21 21 21 22 25 26 27 28 27 27 26 26 26 25 25 25 25 24 23 24 24 25 26 26 28
9 9 10 11 12 13 14 16 18 19 21 22 23 23 23 23 23 21 20 20 21 21 21 22 23 25 27 28 27 27 27 27 27 26 26 27 26 27 27 27 27 27 28
11 11 12 13 13 14 16 17 18 20 20 21 22 23 23 22 21 21 20 20 21 21 21 22 21 21 21 23 25 26 26 27 27 27 26 26 27 27 27 27 27 27 28
12 12 12 12 13 14 15 17 18 19 20 21 21 22 22 21 21 21 21 22 22 22 22 22 22 22 21 22 23 24 24 24 25 25 25 25 25 25 26 27 28 28 29
13 13 14 14 15 15 16 17 17 17 18 19 19 19 20 21 21 21 21 22 22 23 23 23 23 24 23 23 23 23 23 22 22 22 22 23 23 24 25 25 27 27 27
14 15 16 17 17 17 17 18 17 17 16 16 17 17 18 19 19 19 19 20 21 22 22 23 23 23 24 24 25 25 24 22 20 19 19 19 20 21 22 23 24 24 25
15 16 17 18 18 19 19 19 18 17 17 16 16 17 17 17 17 17 17 18 19 20 21 22 23 23 24 25 25 25 24 23 21 19 17 16 16 17 19 21 23 25 26
17 18 19 19 20 21 21 20 19 18 18 17 17 17 16 15 15 15 16 17 18 19 19 19 20 21 23 24 24 25 24 23 21 18 16 15 16 17 19 21 23 26 28
18 18 19 20 21 21 21 21 20 20 19 19 19 17 14 13 12 12 13 13 13 13 13 13 13 14 16 18 20 22 23 22 20 18 16 15 16 18 20 22 24 25 27
17 18 19 20 21 22 23 22 22 22 22 22 20 17 14 10 8 8 8 10 9 9 9 9 6 5 5 8 12 16 19 19 17 15 13 14 15 16 17 19 20 22 23
17 17 18 20 21 21 22 23 24 25 25 24 22 19 16 12 10 9 10 10 11 12 12 12 11 9 8 10 11 14 15 13 10 8 8 9 10 12 14 16 18 21 23
16 17 18 19 19 20 22 23 25 25 26 26 24 23 21 19 17 16 16 16 16 17 18 18 18 18 18 18 17 16 13 10 6 3 1 4 8 11 13 16 18 20 22
16 17 18 19 19 19 21 22 23 24 26 26 26 25 25 24 23 22 22 22 22 22 22 23 23 23 22 22 20 18 16 13 9 7 5 6 8 10 12 14 16 18 19
15 16 17 18 18 19 19 20 22 23 24 25 26 26 26 26 25 25 25 25 25 25 25 25 25 25 24 22 21 19 17 14 12 10 8 8 9 10 11 12 13 15 16
14 15 17 18 18 18 18 18 19 20 21 22 23 24 25 25 25 25 25 25 25 25 25 25 24 24 23 21 19 18 16 14 13 12 11 11 11 11 12 12 14 15 17
12 14 16 17 17 17 17 17 17 17 18 20 20 21 22 22 22 22 22 22 22 22 22 22 21 21 20 19 18 17 16 15 14 13 12 12 12 12 13 14 15 17 18
10 12 14 16 17 17 16 16 15 15 16 17 18 18 19 19 20 19 19 19 19 19 19 18 18 17 17 16 16 15 14 13 12 12 12 12 12 13 14 15 17 18 20
8 9 11 14 16 16 15 15 14 14 14 14 15 15 16 17 17 17 17 17 17 16 16 16 15 15 14 13 13 12 11 11 11 11 11 12 13 14 15 16 18 20 22
5 6 8 11 14 15 15 14 13 13 13 13 13 13 14 14 14 15 15 15 15 15 15 15 15 14 13 12 12 11 11 10 10 11 11 12 13 14 16 17 19 21 23
4 4 6 9 11 13 15 14 13 12 12 12 11 11 12 12 12 13 13 13 14 14 15 15 15 15 14 14 13 13 13 12 12 13 13 13 15 16 17 18 20 22 24

GEFSGL_500_meanwind_018.txt.gz
Wind_Speed
26 26 26 27 28 30 31 32 33 34 35 34 31 30 27 27 26 24 22 21 22 24 26 27 28 29 29 29 28 27 25 23 22 21 20 19 20 20 21 20 20 21 21
18 19 21 23 24 24 26 27 26 25 24 21 19 19 19 18 18 19 19 20 22 24 25 26 27 27 28 28 27 27 26 24 22 21 20 19 20 20 20 21 20 21 20
10 11 13 13 13 13 13 12 12 12 11 9 9 10 12 13 15 17 19 21 23 24 25 26 27 27 27 27 27 27 27 25 23 21 21 20 19 20 20 21 21 21 21
6 5 3 2 1 1 2 2 3 4 5 6 8 11 13 14 16 18 20 21 22 23 24 25 26 26 27 27 27 27 27 26 24 22 21 21 20 19 19 19 20 21 22
13 12 9 8 7 6 6 6 6 6 8 10 12 14 15 16 17 18 19 20 22 22 23 24 24 25 26 26 26 27 26 26 24 23 22 21 20 19 17 18 18 19 20
12 11 10 8 8 7 7 8 9 10 12 13 15 16 17 18 19 20 21 21 22 22 23 23 23 23 24 24 25 25 26 26 25 24 23 22 20 19 18 15 16 17 19
10 9 8 8 7 8 9 10 11 13 15 16 18 19 20 20 20 21 22 22 22 22 22 22 22 22 22 22 22 23 24 25 25 25 24 23 21 20 18 16 15 15 16
11 11 10 10 9 10 10 11 12 13 15 17 18 19 20 21 21 22 22 21 21 21 20 20 20 20 20 20 19 19 20 22 24 24 23 23 22 21 18 17 16 15 15
14 14 14 13 13 13 13 13 14 14 16 17 18 19 20 21 21 21 21 20 20 20 19 18 18 18 18 18 17 16 15 17 18 21 22 22 21 21 20 19 18 17 17
16 16 16 16 16 16 16 16 16 16 17 17 18 19 19 19 20 20 19 19 19 19 19 18 18 18 17 17 16 15 14 14 14 16 18 19 19 18 18 18 18 18 18
19 19 19 19 19 20 20 20 20 19 19 19 19 18 18 17 17 17 17 18 18 18 18 17 17 17 17 17 17 16 15 14 13 12 12 13 14 14 15 16 16 17 18
19 19 20 21 21 23 23 23 23 22 21 20 18 17 15 14 14 14 15 15 16 16 17 17 17 17 17 17 17 17 16 15 13 12 11 10 10 10 11 12 12 13 15
19 20 21 22 23 25 25 25 25 23 22 20 18 16 13 10 10 10 11 12 12 13 15 16 16 17 17 17 17 16 16 14 13 11 10 8 7 7 8 9 10 12 13
19 20 21 22 24 26 26 26 26 25 24 22 19 16 14 11 10 9 9 9 10 10 11 12 12 13 14 15 15 15 15 14 12 10 9 7 6 7 8 9 10 12 14
19 20 21 22 24 25 26 26 26 26 25 24 21 19 17 15 14 13 12 11 10 8 7 6 6 6 8 10 12 13 13 13 11 10 9 7 7 7 8 9 10 12 15
19 20 20 22 23 25 26 26 26 26 26 26 25 23 21 20 18 17 16 15 14 12 9 8 5 2 3 6 9 10 11 11 10 10 7 5 4 5 7 8 10 12 14
19 20 20 21 22 23 25 25 26 26 26 26 26 26 25 24 23 22 22 21 20 18 15 14 13 12 11 11 12 12 12 11 10 8 5 3 2 3 5 6 8 10 12
18 19 20 20 20 21 23 24 25 25 25 26 26 26 26 26 25 25 24 25 25 25 23 21 20 19 19 17 17 16 14 12 10 8 5 3 2 3 5 7 9 11 13
17 19 19 20 20 20 21 22 23 23 24 24 24 24 25 25 25 25 25 25 26 26 25 24 24 23 22 21 20 18 15 13 11 9 8 7 7 7 8 9 10 12 15
16 18 19 19 19 19 19 19 20 21 21 21 22 22 22 22 23 23 24 24 24 24 24 24 23 23 22 21 19 18 16 14 13 12 11 10 10 10 10 11 13 14 17
14 16 18 19 18 18 18 17 18 18 19 19 19 19 19 20 20 20 21 21 21 21 21 21 21 20 19 18 17 16 15 13 13 12 11 11 10 11 11 13 14 16 18
11 14 16 18 18 17 17 16 16 16 16 17 17 17 17 18 18 18 18 18 18 17 17 17 17 16 16 15 15 14 13 12 11 11 11 10 10 11 12 14 15 17 18
9 11 14 16 17 17 16 16 15 15 15 15 15 15 16 16 16 16 17 17 16 16 15 15 14 14 13 13 12 11 11 10 10 10 10 10 11 11 12 14 15 16 18
8 9 11 14 15 16 16 15 15 14 14 14 14 14 14 14 14 15 15 16 16 16 15 15 15 14 13 13 12 12 11 11 11 11 10 10 11 12 12 13 15 16 18
7 8 9 11 13 14 15 15 14 14 13 13 13 13 13 13 13 13 14 15 15 15 15 15 15 15 15 15 14 14 14 14 13 13 13 12 12 12 13 13 15 16 17
7 7 7 8 10 11 12 13 14 14 13 12 12 12 12 12 13 12 12 13 13 14 14 15 15 15 15 16 16 16 16 16 16 15 15 14 13 13 13 13 14 15 16

GEFSGL_500_meanwind_024.txt.gz
Wind_Speed
29 31 33 35 36 36 35 33 32 32 31 30 29 30 30 30 30 31 31 31 32 32 31 31 32 32 31 30 29 27 27 25 24 22 21 21 21 20 19 19 19 19 20
16 18 20 22 23 24 25 25 25 24 24 24 24 24 25 25 26 26 27 28 28 27 27 28 28 29 29 28 26 25 25 23 22 21 20 20 21 21 19 19 19 20 21
1 3 5 7 9 11 12 12 14 14 15 16 16 16 16 17 17 17 18 19 21 21 22 23 24 24 24 24 24 24 23 22 21 20 19 20 21 21 20 19 19 20 21
12 10 9 7 5 4 3 3 4 6 7 8 9 10 11 13 13 14 14 15 15 16 17 18 19 20 20 21 22 21 21 20 20 20 20 20 21 21 21 20 20 20 21
15 14 13 11 10 8 7 6 6 6 7 8 9 10 11 13 14 15 15 16 16 17 17 18 18 19 19 20 20 20 20 20 20 20 20 20 21 21 21 21 20 20 20
15 14 14 13 13 12 10 10 9 9 9 10 11 12 13 15 16 17 18 19 19 20 20 20 19 19 20 20 20 20 20 20 21 20 20 20 20 21 21 21 20 19 19
17 16 16 15 14 13 12 12 12 12 12 13 14 15 16 17 18 19 20 20 20 20 21 21 21 20 20 20 20 19 19 20 20 20 21 21 21 21 21 21 20 18 17
18 18 17 17 16 15 15 14 14 14 15 15 16 17 18 20 20 21 21 21 21 21 21 21 21 21 21 20 20 19 18 18 18 19 19 20 20 20 20 21 20 19 17
19 19 19 19 19 18 17 17 16 16 16 16 17 17 18 19 20 20 20 20 20 20 20 20 21 21 20 20 19 18 17 16 16 16 17 18 19 19 19 20 20 19 18
20 20 20 20 20 19 19 18 18 17 16 16 16 15 15 16 15 16 16 16 17 17 18 19 19 20 20 20 19 17 16 15 14 14 14 14 15 16 17 18 19 18 18
20 20 21 21 21 20 20 20 20 20 19 17 16 15 14 13 12 12 12 13 14 15 16 17 18 18 18 18 18 17 16 15 14 13 12 11 12 12 13 14 15 15 16
20 21 21 22 22 21 21 22 22 22 21 19 17 16 15 14 13 11 10 10 10 11 13 14 16 17 17 17 17 16 16 15 14 12 10 10 9 9 9 9 10 11 11
21 21 21 22 22 22 22 23 23 24 23 22 20 18 17 15 14 12 10 8 7 7 8 10 12 14 15 15 15 15 14 13 12 11 9 8 7 6 6 6 6 6 7
20 21 21 22 22 23 23 24 24 24 25 25 23 22 21 20 18 16 13 10 7 4 3 4 6 9 12 13 14 13 13 12 11 10 8 7 6 5 4 3 3 4 5
20 19 20 21 21 23 23 24 24 25 25 25 26 26 26 25 24 22 19 16 12 9 5 2 3 5 8 10 11 11 11 10 10 9 8 7 6 4 3 1 1 2 3
19 19 19 20 20 21 22 23 24 25 25 26 26 27 27 28 27 27 25 22 20 17 14 11 9 8 9 10 10 10 11 11 10 9 8 8 6 4 3 2 2 3 4
19 19 19 19 19 20 21 22 23 24 24 25 26 27 28 28 29 29 28 27 25 23 21 19 17 15 14 14 13 13 13 12 11 11 9 8 7 6 6 5 5 6 6
17 18 18 18 18 19 19 20 21 22 23 24 25 26 26 27 27 28 29 28 28 27 26 24 23 21 20 18 17 16 15 14 13 12 11 10 9 9 8 7 7 8 9
16 17 17 17 18 18 18 19 20 21 21 22 23 24 24 25 25 25 26 27 27 27 26 26 25 24 22 21 20 19 17 16 15 14 13 12 11 10 10 9 9 9 10
13 15 16 17 17 17 17 17 18 19 20 20 21 22 22 23 23 23 23 23 24 24 24 23 23 22 22 21 20 19 18 17 16 15 14 13 12 10 10 9 9 10 11
11 13 15 16 16 16 16 16 17 17 18 19 19 20 20 20 21 21 21 21 21 20 20 20 20 20 19 19 18 17 16 16 15 13 12 11 10 9 9 9 9 10 11
9 10 12 14 15 15 15 15 16 16 17 17 17 18 18 18 19 19 19 19 19 19 19 18 18 18 17 16 15 14 14 13 12 11 10 9 9 8 8 9 9 9 11
8 8 9 11 13 13 14 15 15 15 15 15 16 16 16 16 16 17 17 17 17 17 17 17 17 17 16 16 15 14 13 12 11 10 10 9 9 9 9 9 9 9 10
7 7 8 9 10 11 12 13 14 14 14 14 14 14 14 14 14 14 15 15 16 16 17 17 17 17 17 17 16 15 15 14 13 12 11 10 9 9 9 9 9 10 10
8 8 8 8 9 9 10 11 12 12 12 12 12 12 12 12 11 11 12 12 13 13 14 15 16 16 16 16 16 15 15 14 13 12 11 11 10 9 9 9 9 9 10
10 9 9 9 9 9 9 10 10 10 11 11 10 10 10 10 9 9 9 9 9 10 11 11 12 13 13 13 13 13 12 12 11 11 10 9 9 8 8 9 9 10 11

GEFSGL_500_meanwind_030.txt.gz
Wind_Speed
7 8 10 13 16 18 19 21 23 24 26 27 28 30 31 32 33 33 33 34 34 35 35 35 34 34 34 35 34 35 34 34 35 36 35 34 32 29 28 27 27 26 25
6 4 2 3 5 7 10 13 15 17 19 22 23 25 26 28 29 29 30 31 32 33 34 34 34 33 33 34 33 33 33 35 35 35 34 32 31 29 27 27 26 26 24
14 12 10 8 5 2 2 4 7 10 12 14 15 17 19 21 22 23 25 26 27 29 31 31 30 31 31 30 30 30 30 30 31 30 30 28 28 27 26 26 25 24 23
18 15 13 12 10 9 7 5 3 4 5 7 10 12 13 15 16 18 20 21 22 23 24 24 25 25 25 25 25 25 25 26 26 26 25 25 25 24 24 24 23 23 22
20 19 17 15 13 11 9 8 7 7 7 7 8 10 10 12 13 15 16 17 17 18 19 20 19 19 19 20 20 20 21 20 20 20 20 21 21 22 22 22 22 22 22
20 19 18 17 15 14 12 11 10 9 9 10 10 11 11 12 13 14 15 16 17 17 17 16 16 16 15 15 16 16 15 15 16 17 17 18 19 20 20 21 21 21 22
20 20 19 18 17 16 15 14 13 12 11 11 12 12 12 14 14 15 16 16 17 18 18 18 17 16 15 15 14 13 13 14 14 14 15 16 17 19 20 20 20 20 21
21 21 21 20 19 18 17 17 16 15 14 14 14 14 13 14 14 15 15 16 17 19 19 19 18 17 16 15 15 14 14 14 14 14 15 15 16 17 18 18 19 20 20
21 22 22 22 21 21 20 20 19 18 17 17 16 16 15 14 14 13 14 14 15 16 17 18 18 18 17 16 15 15 14 14 14 13 13 13 14 15 15 16 17 17 18
21 22 22 23 22 22 22 22 21 21 21 20 19 18 17 15 14 13 12 12 12 14 15 16 17 17 17 16 15 14 13 12 12 12 12 12 12 12 12 14 14 15 15
22 22 22 23 23 23 23 23 23 24 24 23 22 20 19 17 15 12 10 9 9 9 11 13 15 15 15 15 14 14 14 12 11 10 10 9 9 8 9 9 10 11 12
21 22 23 23 24 24 24 24 24 25 25 25 24 24 22 19 17 14 11 8 5 5 7 9 11 13 14 14 14 14 13 11 10 9 8 7 7 6 6 6 6 6 6
21 21 22 23 24 24 25 25 25 25 26 26 26 26 25 22 20 17 13 10 6 2 2 6 9 11 13 13 14 13 12 10 10 8 6 5 5 4 4 3 3 3 3
21 21 22 23 23 24 25 25 25 26 26 26 27 27 26 25 23 21 18 15 11 8 5 4 7 9 11 12 12 11 11 10 9 8 6 6 5 5 5 5 4 4 3
20 21 21 22 22 23 24 25 25 26 26 26 27 27 27 26 25 24 22 20 17 14 12 11 10 11 12 12 11 11 11 10 9 8 7 7 7 7 7 7 6 6 6
19 20 21 21 22 22 23 24 25 26 26 26 26 26 26 26 26 26 25 23 21 19 18 17 16 14 14 13 12 12 12 11 10 10 10 9 9 9 8 9 9 9 9
18 19 20 21 21 22 23 24 24 25 25 25 26 26 25 26 26 26 26 25 24 23 21 20 19 18 17 16 15 14 14 14 13 13 12 11 11 11 11 11 10 10 9
17 18 19 20 21 21 22 23 24 24 24 24 24 25 25 25 25 25 26 26 25 24 23 22 21 20 19 18 18 17 17 16 15 15 14 14 13 13 12 11 10 9 8
14 16 18 19 20 21 21 22 23 23 23 23 23 23 23 23 23 24 24 24 25 25 24 23 23 22 21 20 20 19 18 17 16 16 15 14 13 12 11 10 9 7 6
12 14 15 17 18 19 20 21 22 22 22 22 22 22 22 22 22 22 22 22 22 23 23 23 22 22 21 20 20 19 18 17 16 15 14 13 12 10 9 8 7 6 5
10 11 13 14 16 18 19 20 20 20 21 20 20 20 20 20 20 20 21 21 21 20 20 20 20 19 19 18 18 17 16 15 14 13 12 11 10 9 7 6 5 5 5
9 10 11 12 13 15 16 17 18 19 19 19 18 18 18 18 19 19 19 19 19 19 19 18 18 17 17 16 16 15 14 13 12 11 10 9 8 8 7 6 5 5 6
10 10 10 10 11 12 13 14 15 16 17 17 17 16 16 16 16 17 17 18 18 18 18 17 17 16 16 15 14 14 13 12 11 10 9 8 8 7 6 5 5 5 6
11 11 10 10 10 10 11 11 12 13 14 14 14 14 13 13 13 13 14 15 15 16 16 16 16 16 15 15 14 13 12 12 11 10 9 8 7 6 6 5 6 7 8
12 12 12 11 11 10 10 10 10 10 11 11 11 11 11 10 10 9 9 10 11 12 13 13 14 14 14 13 13 12 11 11 10 9 8 7 7 6 6 7 8 9 10
15 15 14 14 13 12 12 11 10 10 9 9 9 9 9 8 7 6 5 5 5 6 7 8 8 9 9 9 9 9 8 8 7 7 7 7 7 8 8 9 10 10 12

GEFSGL_500_meanwind_036.txt.gz
Wind_Speed
13 9 6 2 2 5 8 12 16 19 21 24 26 27 29 30 31 33 34 35 36 36 35 35 36 35 35 35 35 34 34 35 36 36 36 35 34 34 34 34 33 32 32
15 13 10 8 4 1 2 6 9 13 16 18 21 23 25 27 29 31 32 34 35 35 35 35 36 36 36 35 35 35 34 33 33 34 34 34 33 33 34 34 34 33 32
18 15 12 10 8 6 3 0 3 6 10 13 16 19 22 24 27 29 30 31 32 33 33 34 35 35 35 35 35 35 34 33 32 32 31 30 30 31 31 32 31 30 29
19 18 16 13 12 10 7 5 2 1 4 7 11 14 17 19 22 24 26 28 29 30 31 31 32 33 32 33 33 33 32 31 29 29 28 28 28 27 27 27 26 24 23
20 19 18 16 14 12 10 7 5 4 3 4 6 9 12 15 17 19 21 23 25 26 27 27 28 28 29 28 28 28 28 28 27 27 26 26 25 24 23 22 21 21 19
21 20 19 18 17 16 14 12 10 8 6 5 6 8 10 12 15 17 19 20 22 23 24 24 25 25 25 25 26 26 25 25 25 24 23 23 23 21 20 19 19 18 18
22 21 20 19 18 18 16 15 13 11 10 9 8 8 9 11 13 15 17 18 20 21 21 22 22 21 21 21 21 21 22 22 20 20 20 20 19 19 18 18 17 17 17
21 21 20 19 19 18 17 16 15 14 13 12 11 11 11 12 12 13 15 17 18 19 19 19 19 19 19 18 18 16 17 17 17 18 18 18 17 17 16 16 16 15 15
21 21 21 20 19 18 18 17 17 16 16 15 14 14 13 13 13 13 14 15 16 17 18 18 18 18 18 16 14 14 14 14 14 13 14 13 13 14 14 14 14 14 14
21 21 21 20 20 19 19 19 19 19 18 18 17 16 15 14 13 12 11 11 12 14 15 16 16 17 17 16 14 13 13 13 12 12 11 11 11 11 11 12 12 12 12
20 20 20 21 21 21 20 20 20 20 20 20 19 18 17 16 14 11 9 8 8 10 12 13 15 16 18 17 15 13 11 11 11 11 10 10 9 9 10 10 11 11 11
19 20 20 20 21 21 21 21 21 21 21 21 21 20 19 18 16 13 10 6 3 6 9 11 13 16 17 16 16 14 12 11 10 10 9 9 9 9 9 9 9 9 9
20 20 20 20 21 21 22 22 22 22 22 22 22 22 21 20 18 16 13 9 4 3 7 10 13 16 16 16 15 14 12 11 10 9 9 9 9 9 9 9 8 8 7
20 21 21 21 21 22 22 22 22 23 22 22 22 22 22 21 20 19 17 14 11 8 9 11 13 15 16 15 14 13 13 11 10 9 9 9 9 9 9 9 8 8 7
19 20 21 22 22 22 22 22 22 23 23 22 22 23 23 23 22 21 19 17 15 14 13 13 14 15 16 15 14 14 13 11 11 10 10 9 9 10 10 10 9 9 8
18 20 21 22 22 22 22 22 22 22 22 22 22 22 23 23 23 22 21 20 18 17 16 16 16 16 16 15 14 14 13 12 11 11 11 10 11 11 11 10 10 10 10
16 18 19 21 22 22 22 21 22 21 22 22 22 22 22 22 23 23 23 22 20 19 18 17 16 16 16 15 15 14 14 13 12 12 12 12 12 12 12 12 11 10 10
14 16 17 19 20 21 22 21 21 21 21 21 21 22 22 22 22 23 23 22 21 20 19 18 17 17 17 16 15 14 14 14 14 13 13 13 13 13 12 11 10 9 8
12 13 15 17 18 19 21 21 21 20 21 21 21 21 21 21 21 21 22 22 22 21 20 19 18 18 17 17 17 16 16 15 15 14 14 13 13 12 11 10 9 8 7
10 11 12 14 15 17 18 19 20 20 19 19 20 20 20 20 20 19 20 20 20 20 20 19 18 18 18 17 17 16 15 15 14 13 13 12 12 11 10 8 7 6 5
9 10 10 11 12 14 15 17 18 18 18 18 18 18 19 19 19 18 18 17 17 18 18 18 17 17 16 16 15 15 14 13 13 12 12 11 10 9 8 7 6 5 4
9 9 9 10 10 11 12 13 14 15 16 16 15 15 16 16 17 17 17 16 16 15 15 15 15 15 15 15 14 14 13 13 12 11 10 10 9 8 6 5 4 3 2
9 9 9 9 9 9 9 10 11 12 13 13 13 12 12 13 13 14 14 14 14 14 14 13 13 13 12 12 12 11 11 10 10 9 8 7 6 5 4 3 2 1 1
10 10 10 9 9 9 9 8 9 9 9 10 10 10 9 9 9 9 10 10 11 11 11 11 10 10 10 10 9 9 8 8 7 7 6 5 4 2 1 1 2 3 5
11 11 11 11 10 10 10 9 9 8 8 7 7 7 7 6 5 5 5 5 5 6 6 7 7 7 7 7 6 6 5 5 4 3 2 1 0 1 3 4 5 6 8
13 12 12 12 12 12 11 11 10 10 9 8 8 7 6 6 5 4 3 3 2 1 0 0 1 1 1 2 2 1 1 1 1 2 3 3 4 5 7 8 8 9 10